Flag for Kazakhstan Weather past 2 weeks in Almaty, Kazakhstan

Now
72 °F

Partly sunny.


Feels Like: 76 °F
Forecast: 59 / 90 °F
Wind: 3 mph from North

Location: Almaty Airport

Current Time: Sep 17, 2014 at 11:29:48 AM

Latest Report: Sep 17, 2014 at 11:00 AM


Visibility: N/A

Pressure: 29.86 "Hg

Humidity: 29%

Dew point: 37 °F

Location of AlmatyLocation

Historic Weather in Almaty — Graph

°F

Almaty temperature yesterday

Maximum temperature yesterday: 75 °F (at 3:00 PM)
Minimum temperature yesterday: 50 °F (at 3:30 AM)
Average temperature yesterday: 61 °F

Past Weeks' High & Low Weather Summary

 TemperatureHumidityPressure
High93 °F (Sep 2, 2:30 PM)88% (Sep 16, 2:00 AM)30.27 "Hg (Sep 16, 2:00 AM)
Low36 °F (Sep 12, 6:30 AM)7% (Sep 2, 3:00 PM)29.71 "Hg (Sep 6, 11:30 AM)
Average63 °F34%29.98 "Hg
* Reported Sep 2 10:00 AM — Sep 17 10:30 AM, Almaty, Weather by CustomWeather, © 2014

Note: Actual official high and low records may vary slightly from our data, if they occured in-between our weather recording intervals... More about our weather records

Advertising

Almaty weather history for previous 24 hours

 ConditionsComfort  
Time TempWeatherWind HumidityBarometerVisibility
10:30 AM
Sep 17
72 °FScattered clouds.1 mph31%29.86 "HgN/A
10:00 AM68 °FScattered clouds.1 mph38%29.86 "HgN/A
9:30 AM66 °FScattered clouds.3 mph43%29.86 "HgN/A
9:00 AM63 °FPartly sunny.1 mph49%29.86 "HgN/A
8:30 AM59 °FBroken clouds.3 mph55%29.89 "HgN/A
8:00 AM59 °FBroken clouds.3 mph59%29.86 "HgN/A
7:30 AM54 °FBroken clouds.1 mph72%29.89 "HgN/A
7:00 AM52 °FPartly sunny.3 mph72%29.89 "HgN/A
6:30 AM52 °FPartly sunny.3 mph72%29.89 "HgN/A
6:00 AM50 °FBroken clouds.6 mph76%29.89 "HgN/A
5:30 AM50 °FPartly cloudy.3 mph76%29.89 "HgN/A
5:00 AM50 °FPartly cloudy.3 mph71%29.89 "HgN/A
4:30 AM48 °FPartly cloudy.3 mph76%29.86 "HgN/A
4:00 AM50 °FPartly cloudy.1 mph67%29.86 "HgN/A
3:30 AM48 °FPartly cloudy.3 mph76%29.86 "HgN/A
3:00 AM50 °FPassing clouds.3 mph71%29.89 "HgN/A
2:30 AM50 °FPassing clouds.1 mph71%29.89 "HgN/A
2:00 AM50 °FPassing clouds.No wind71%29.89 "HgN/A
1:30 AM52 °FPassing clouds.3 mph67%29.89 "HgN/A
1:00 AM52 °FPassing clouds.3 mph72%29.89 "HgN/A
12:30 AM52 °FPassing clouds.1 mph72%29.89 "HgN/A
12:00 AM54 °FPassing clouds.3 mph72%29.92 "HgN/A
11:30 PM
Sep 16
55 °FPartly cloudy.3 mph67%29.92 "HgN/A
11:00 PM57 °FPartly cloudy.3 mph63%29.92 "HgN/A
10:30 PM57 °FPartly cloudy.1 mph63%29.92 "HgN/A
10:00 PM59 °FPartly cloudy.No wind59%29.92 "HgN/A
9:30 PM59 °FPartly cloudy.No wind59%29.95 "HgN/A
9:00 PM59 °FPartly cloudy.6 mph59%29.95 "HgN/A
8:30 PM61 °FPartly cloudy.6 mph55%29.95 "HgN/A
8:00 PM63 °FPartly cloudy.6 mph52%29.95 "HgN/A
7:30 PM64 °FPartly cloudy.6 mph49%29.95 "Hg3 mi
7:00 PM68 °FPartly cloudy.6 mph40%29.95 "HgN/A
6:30 PM72 °FPassing clouds.6 mph33%29.95 "HgN/A
5:30 PM75 °FPassing clouds.6 mph27%29.95 "HgN/A
5:00 PM75 °FPassing clouds.6 mph27%29.95 "HgN/A
4:30 PM75 °FPassing clouds.6 mph27%29.92 "HgN/A
4:00 PM75 °FPassing clouds.6 mph27%29.95 "HgN/A
3:30 PM75 °FPassing clouds.6 mph27%29.95 "HgN/A
3:00 PM75 °FPassing clouds.6 mph27%29.95 "HgN/A
2:30 PM73 °FPassing clouds.6 mph29%29.95 "HgN/A
1:30 PM73 °FPassing clouds.6 mph29%29.95 "HgN/A
1:00 PM72 °FPassing clouds.8 mph31%29.95 "HgN/A
12:30 PM72 °FPassing clouds.6 mph33%29.98 "HgN/A
12:00 PM70 °FPassing clouds.6 mph38%29.98 "HgN/A
11:30 AM68 °FPassing clouds.6 mph43%30.01 "HgN/A
11:00 AM66 °FPassing clouds.8 mph52%30.01 "HgN/A
Weather by CustomWeather, © 2014

See weather overviewHow to use our weather pages